Time,TemperatureF,DewpointF,PressureIn,WindDirection,WindDirectionDegrees,WindSpeedMPH,WindSpeedGustMPH,Humidity,HourlyPrecipIn,Conditions,Clouds,dailyrainin,SoftwareType,DateUTC
2013-09-24 00:00:00,50.3,46.3,30.08,WSW,242,0.0,16.0,86,0.00,,,0.33,Wunderground v.1.15,2013-09-24 06:00:00,
2013-09-24 00:06:00,50.1,46.1,30.09,WSW,242,0.0,16.0,86,0.00,,,0.33,Wunderground v.1.15,2013-09-24 06:06:00,
2013-09-24 00:12:00,50.3,46.0,30.09,WSW,242,0.0,16.0,85,0.00,,,0.33,Wunderground v.1.15,2013-09-24 06:12:00,
2013-09-24 00:18:00,50.3,46.0,30.09,WSW,242,0.0,16.0,85,0.00,,,0.33,Wunderground v.1.15,2013-09-24 06:18:00,
2013-09-24 00:24:00,50.0,45.7,30.09,WSW,242,0.0,16.0,85,0.00,,,0.33,Wunderground v.1.15,2013-09-24 06:24:00,
2013-09-24 00:30:00,50.3,45.6,30.09,WSW,241,1.0,16.0,84,0.00,,,0.33,Wunderground v.1.15,2013-09-24 06:30:00,
2013-09-24 00:36:00,50.6,45.6,30.09,WSW,239,1.0,16.0,83,0.00,,,0.33,Wunderground v.1.15,2013-09-24 06:36:00,
2013-09-24 00:42:00,50.8,45.5,30.09,WSW,239,0.0,16.0,82,0.00,,,0.00,Wunderground v.1.15,2013-09-24 06:42:00,
2013-09-24 00:48:00,51.0,45.7,30.09,WSW,239,0.0,16.0,82,0.00,,,0.00,Wunderground v.1.15,2013-09-24 06:48:00,
2013-09-24 00:54:00,51.1,45.5,30.09,SW,228,0.0,16.0,81,0.00,,,0.00,Wunderground v.1.15,2013-09-24 06:54:00,
2013-09-24 01:00:00,51.2,45.6,30.09,SW,228,0.0,16.0,81,0.00,,,0.00,Wunderground v.1.15,2013-09-24 07:00:00,
2013-09-24 01:06:00,51.7,45.4,30.10,SW,236,1.0,16.0,79,0.00,,,0.00,Wunderground v.1.15,2013-09-24 07:06:00,
2013-09-24 01:12:00,51.8,45.5,30.10,SW,236,1.0,16.0,79,0.00,,,0.00,Wunderground v.1.15,2013-09-24 07:12:00,
2013-09-24 01:18:00,51.6,45.0,30.10,SW,236,0.0,16.0,78,0.00,,,0.00,Wunderground v.1.15,2013-09-24 07:18:00,
2013-09-24 01:24:00,51.7,44.7,30.10,SW,236,1.0,16.0,77,0.00,,,0.00,Wunderground v.1.15,2013-09-24 07:24:00,
2013-09-24 01:30:00,52.0,44.7,30.11,WSW,237,1.0,1.0,76,0.00,,,0.00,Wunderground v.1.15,2013-09-24 07:30:00,
2013-09-24 01:36:00,51.9,44.6,30.11,SW,218,0.0,16.0,76,0.00,,,0.00,Wunderground v.1.15,2013-09-24 07:36:00,
2013-09-24 01:42:00,51.5,44.5,30.11,SW,218,0.0,16.0,77,0.00,,,0.00,Wunderground v.1.15,2013-09-24 07:42:00,
2013-09-24 01:48:00,51.2,44.2,30.11,SW,214,0.0,16.0,77,0.00,,,0.00,Wunderground v.1.15,2013-09-24 07:48:00,
2013-09-24 01:54:00,51.1,44.1,30.11,SW,215,0.0,16.0,77,0.00,,,0.00,Wunderground v.1.15,2013-09-24 07:54:00,
2013-09-24 02:00:00,51.3,44.0,30.11,SW,216,1.0,16.0,76,0.00,,,0.00,Wunderground v.1.15,2013-09-24 08:00:00,
2013-09-24 02:06:00,51.4,43.7,30.11,SW,217,2.0,16.0,75,0.00,,,0.00,Wunderground v.1.15,2013-09-24 08:06:00,
2013-09-24 02:12:00,51.5,43.8,30.11,WSW,251,2.0,16.0,75,0.00,,,0.00,Wunderground v.1.15,2013-09-24 08:12:00,
2013-09-24 02:18:00,51.5,43.8,30.11,WSW,242,2.0,16.0,75,0.00,,,0.00,Wunderground v.1.15,2013-09-24 08:18:00,
2013-09-24 02:24:00,51.5,43.5,30.11,WSW,242,1.0,16.0,74,0.00,,,0.00,Wunderground v.1.15,2013-09-24 08:24:00,
2013-09-24 02:30:00,51.4,43.4,30.11,WSW,242,1.0,16.0,74,0.00,,,0.00,Wunderground v.1.15,2013-09-24 08:30:00,
2013-09-24 02:36:00,51.2,43.2,30.11,WSW,242,2.0,16.0,74,0.00,,,0.00,Wunderground v.1.15,2013-09-24 08:36:00,
2013-09-24 02:42:00,51.0,43.0,30.12,WSW,242,2.0,16.0,74,0.00,,,0.00,Wunderground v.1.15,2013-09-24 08:42:00,
2013-09-24 02:48:00,50.9,42.9,30.12,WSW,242,1.0,16.0,74,0.00,,,0.00,Wunderground v.1.15,2013-09-24 08:48:00,
2013-09-24 02:54:00,50.8,42.8,30.12,WSW,242,0.0,16.0,74,0.00,,,0.00,Wunderground v.1.15,2013-09-24 08:54:00,
2013-09-24 03:00:00,50.7,42.7,30.12,WSW,242,0.0,16.0,74,0.00,,,0.00,Wunderground v.1.15,2013-09-24 09:00:00,
2013-09-24 03:06:00,50.6,42.6,30.12,WSW,242,0.0,16.0,74,0.00,,,0.00,Wunderground v.1.15,2013-09-24 09:06:00,
2013-09-24 03:12:00,50.4,42.4,30.12,WSW,242,0.0,16.0,74,0.00,,,0.00,Wunderground v.1.15,2013-09-24 09:12:00,
2013-09-24 03:18:00,50.1,42.1,30.12,WSW,242,0.0,16.0,74,0.00,,,0.00,Wunderground v.1.15,2013-09-24 09:18:00,
2013-09-24 03:24:00,50.3,42.3,30.13,WSW,242,1.0,16.0,74,0.00,,,0.00,Wunderground v.1.15,2013-09-24 09:24:00,
2013-09-24 03:30:00,50.3,42.0,30.13,WSW,242,2.0,16.0,73,0.00,,,0.00,Wunderground v.1.15,2013-09-24 09:30:00,
2013-09-24 03:36:00,50.1,41.8,30.13,WSW,242,1.0,16.0,73,0.00,,,0.00,Wunderground v.1.15,2013-09-24 09:36:00,
2013-09-24 03:42:00,49.7,41.7,30.13,WSW,242,1.0,16.0,74,0.00,,,0.00,Wunderground v.1.15,2013-09-24 09:42:00,
2013-09-24 03:48:00,49.2,41.6,30.13,WSW,242,1.0,16.0,75,0.00,,,0.00,Wunderground v.1.15,2013-09-24 09:48:00,
2013-09-24 03:54:00,48.8,41.2,30.13,WSW,242,0.0,16.0,75,0.00,,,0.00,Wunderground v.1.15,2013-09-24 09:54:00,
2013-09-24 04:00:00,48.7,41.1,30.13,WSW,242,1.0,1.0,75,0.00,,,0.00,Wunderground v.1.15,2013-09-24 10:00:00,
2013-09-24 04:06:00,49.1,41.2,30.13,WSW,242,1.0,16.0,74,0.00,,,0.00,Wunderground v.1.15,2013-09-24 10:06:00,
2013-09-24 04:12:00,49.5,41.2,30.13,WSW,242,0.0,16.0,73,0.00,,,0.00,Wunderground v.1.15,2013-09-24 10:12:00,
2013-09-24 04:18:00,49.3,41.4,30.13,WSW,242,0.0,16.0,74,0.00,,,0.00,Wunderground v.1.15,2013-09-24 10:18:00,
2013-09-24 04:24:00,48.9,41.0,30.14,WSW,242,1.0,16.0,74,0.00,,,0.00,Wunderground v.1.15,2013-09-24 10:24:00,
2013-09-24 04:30:00,48.5,40.9,30.14,WSW,242,1.0,16.0,75,0.00,,,0.00,Wunderground v.1.15,2013-09-24 10:30:00,
2013-09-24 04:36:00,48.2,40.6,30.14,WSW,242,2.0,16.0,75,0.00,,,0.00,Wunderground v.1.15,2013-09-24 10:36:00,
2013-09-24 04:42:00,48.3,40.7,30.14,WSW,245,2.0,16.0,75,0.00,,,0.00,Wunderground v.1.15,2013-09-24 10:42:00,
2013-09-24 04:48:00,49.1,41.2,30.15,WSW,256,3.0,16.0,74,0.00,,,0.00,Wunderground v.1.15,2013-09-24 10:48:00,
2013-09-24 04:54:00,49.3,41.0,30.15,WSW,256,2.0,16.0,73,0.00,,,0.00,Wunderground v.1.15,2013-09-24 10:54:00,
2013-09-24 05:00:00,48.1,40.9,30.15,WSW,258,2.0,16.0,76,0.00,,,0.00,Wunderground v.1.15,2013-09-24 11:00:00,
2013-09-24 05:06:00,47.0,40.5,30.15,WSW,256,2.0,16.0,78,0.00,,,0.00,Wunderground v.1.15,2013-09-24 11:06:00,
2013-09-24 05:12:00,46.4,40.6,30.15,WSW,256,2.0,16.0,80,0.00,,,0.00,Wunderground v.1.15,2013-09-24 11:12:00,
2013-09-24 05:18:00,46.6,40.4,30.15,WSW,255,1.0,16.0,79,0.00,,,0.00,Wunderground v.1.15,2013-09-24 11:18:00,
2013-09-24 05:24:00,47.4,40.2,30.15,WSW,252,2.0,16.0,76,0.00,,,0.00,Wunderground v.1.15,2013-09-24 11:24:00,
2013-09-24 05:30:00,48.0,40.5,30.15,WSW,252,2.0,2.0,75,0.00,,,0.00,Wunderground v.1.15,2013-09-24 11:30:00,
2013-09-24 05:36:00,48.1,40.5,30.16,WSW,252,1.0,16.0,75,0.00,,,0.00,Wunderground v.1.15,2013-09-24 11:36:00,
2013-09-24 05:42:00,47.6,40.1,30.16,WSW,252,1.0,16.0,75,0.00,,,0.00,Wunderground v.1.15,2013-09-24 11:42:00,
2013-09-24 05:48:00,47.0,39.8,30.16,WSW,252,2.0,16.0,76,0.00,,,0.00,Wunderground v.1.15,2013-09-24 11:48:00,
2013-09-24 05:54:00,46.5,39.7,30.16,WSW,252,2.0,16.0,77,0.00,,,0.00,Wunderground v.1.15,2013-09-24 11:54:00,
2013-09-24 06:00:00,46.5,39.7,30.17,WSW,252,2.0,2.0,77,0.00,,,0.00,Wunderground v.1.15,2013-09-24 12:00:00,
2013-09-24 06:06:00,46.9,39.7,30.17,WSW,253,2.0,16.0,76,0.00,,,0.00,Wunderground v.1.15,2013-09-24 12:06:00,
2013-09-24 06:12:00,47.0,39.5,30.17,WSW,253,2.0,16.0,75,0.00,,,0.00,Wunderground v.1.15,2013-09-24 12:12:00,
2013-09-24 06:18:00,47.0,39.5,30.17,WSW,253,2.0,16.0,75,0.00,,,0.00,Wunderground v.1.15,2013-09-24 12:18:00,
2013-09-24 06:24:00,47.0,39.5,30.17,WSW,253,2.0,16.0,75,0.00,,,0.00,Wunderground v.1.15,2013-09-24 12:24:00,
2013-09-24 06:30:00,47.4,39.5,30.17,WSW,253,2.0,2.0,74,0.00,,,0.00,Wunderground v.1.15,2013-09-24 12:30:00,
2013-09-24 06:36:00,47.4,39.2,30.17,WSW,253,0.0,16.0,73,0.00,,,0.00,Wunderground v.1.15,2013-09-24 12:36:00,
2013-09-24 06:42:00,47.1,39.2,30.17,WSW,253,0.0,16.0,74,0.00,,,0.00,Wunderground v.1.15,2013-09-24 12:42:00,
2013-09-24 06:48:00,46.8,39.3,30.17,WSW,256,1.0,16.0,75,0.00,,,0.00,Wunderground v.1.15,2013-09-24 12:48:00,
2013-09-24 06:54:00,46.4,38.9,30.18,WSW,258,1.0,16.0,75,0.00,,,0.00,Wunderground v.1.15,2013-09-24 12:54:00,
2013-09-24 07:00:00,45.9,38.8,30.18,West,260,1.0,1.0,76,0.00,,,0.00,Wunderground v.1.15,2013-09-24 13:00:00,
2013-09-24 07:06:00,45.8,39.0,30.18,West,260,1.0,16.0,77,0.00,,,0.00,Wunderground v.1.15,2013-09-24 13:06:00,
2013-09-24 07:12:00,46.2,39.1,30.18,WSW,257,1.0,16.0,76,0.00,,,0.00,Wunderground v.1.15,2013-09-24 13:12:00,
2013-09-24 07:18:00,47.0,39.8,30.18,WSW,258,1.0,16.0,76,0.00,,,0.00,Wunderground v.1.15,2013-09-24 13:18:00,
2013-09-24 07:24:00,47.6,39.7,30.19,WSW,257,2.0,16.0,74,0.00,,,0.00,Wunderground v.1.15,2013-09-24 13:24:00,
2013-09-24 07:30:00,48.3,40.0,30.19,WSW,257,1.0,1.0,73,0.00,,,0.00,Wunderground v.1.15,2013-09-24 13:30:00,
2013-09-24 07:36:00,48.7,40.1,30.19,WSW,258,1.0,16.0,72,0.00,,,0.00,Wunderground v.1.15,2013-09-24 13:36:00,
2013-09-24 07:42:00,49.2,40.9,30.19,West,259,1.0,16.0,73,0.00,,,0.00,Wunderground v.1.15,2013-09-24 13:42:00,
2013-09-24 07:48:00,49.7,41.7,30.20,WSW,258,1.0,16.0,74,0.00,,,0.00,Wunderground v.1.15,2013-09-24 13:48:00,
2013-09-24 07:54:00,50.1,42.1,30.19,West,259,1.0,16.0,74,0.00,,,0.00,Wunderground v.1.15,2013-09-24 13:54:00,
2013-09-24 08:00:00,50.4,42.4,30.20,WSW,258,1.0,16.0,74,0.00,,,0.00,Wunderground v.1.15,2013-09-24 14:00:00,
2013-09-24 08:06:00,50.6,43.0,30.20,WNW,283,2.0,16.0,75,0.00,,,0.00,Wunderground v.1.15,2013-09-24 14:06:00,
2013-09-24 08:12:00,50.7,42.4,30.20,WNW,283,1.0,16.0,73,0.00,,,0.00,Wunderground v.1.15,2013-09-24 14:12:00,
2013-09-24 08:18:00,51.1,42.7,30.20,WNW,283,1.0,16.0,73,0.00,,,0.00,Wunderground v.1.15,2013-09-24 14:18:00,
2013-09-24 08:24:00,51.7,43.3,30.20,WNW,283,2.0,16.0,73,0.00,,,0.00,Wunderground v.1.15,2013-09-24 14:24:00,
2013-09-24 08:30:00,52.4,44.4,30.20,WNW,283,1.0,1.0,74,0.00,,,0.00,Wunderground v.1.15,2013-09-24 14:30:00,
2013-09-24 08:36:00,53.2,44.4,30.20,WNW,283,1.0,16.0,72,0.00,,,0.00,Wunderground v.1.15,2013-09-24 14:36:00,
2013-09-24 08:42:00,53.9,45.4,30.20,WNW,283,1.0,16.0,73,0.00,,,0.00,Wunderground v.1.15,2013-09-24 14:42:00,
2013-09-24 08:48:00,54.7,46.6,30.20,WNW,283,1.0,16.0,74,0.00,,,0.00,Wunderground v.1.15,2013-09-24 14:48:00,
2013-09-24 08:54:00,55.6,46.3,30.20,WNW,283,0.0,16.0,71,0.00,,,0.00,Wunderground v.1.15,2013-09-24 14:54:00,
2013-09-24 09:00:00,56.6,48.0,30.20,WNW,283,0.0,16.0,73,0.00,,,0.00,Wunderground v.1.15,2013-09-24 15:00:00,
2013-09-24 09:06:00,57.8,44.9,30.19,WNW,283,1.0,16.0,62,0.00,,,0.00,Wunderground v.1.15,2013-09-24 15:06:00,
2013-09-24 09:12:00,59.0,44.7,30.20,West,276,2.0,16.0,59,0.00,,,0.00,Wunderground v.1.15,2013-09-24 15:12:00,
2013-09-24 09:18:00,59.8,45.0,30.20,West,276,1.0,16.0,58,0.00,,,0.00,Wunderground v.1.15,2013-09-24 15:18:00,
2013-09-24 09:24:00,60.3,44.5,30.20,West,276,1.0,16.0,56,0.00,,,0.00,Wunderground v.1.15,2013-09-24 15:24:00,
2013-09-24 09:30:00,60.8,45.9,30.20,West,276,0.0,16.0,58,0.00,,,0.00,Wunderground v.1.15,2013-09-24 15:30:00,
2013-09-24 09:36:00,61.5,45.7,30.19,West,276,0.0,16.0,56,0.00,,,0.00,Wunderground v.1.15,2013-09-24 15:36:00,
2013-09-24 09:42:00,62.6,46.2,30.19,West,276,0.0,16.0,55,0.00,,,0.00,Wunderground v.1.15,2013-09-24 15:42:00,
2013-09-24 09:48:00,63.6,45.1,30.19,West,276,0.0,16.0,51,0.00,,,0.00,Wunderground v.1.15,2013-09-24 15:48:00,
2013-09-24 09:54:00,64.8,46.8,30.19,SW,214,0.0,16.0,52,0.00,,,0.00,Wunderground v.1.15,2013-09-24 15:54:00,
2013-09-24 10:00:00,65.7,43.2,30.19,SE,132,2.0,2.0,44,0.00,,,0.00,Wunderground v.1.15,2013-09-24 16:00:00,
2013-09-24 10:06:00,65.9,43.4,30.19,SE,129,3.0,6.0,44,0.00,,,0.00,Wunderground v.1.15,2013-09-24 16:06:00,
2013-09-24 10:12:00,65.9,42.8,30.19,SE,141,4.0,16.0,43,0.00,,,0.00,Wunderground v.1.15,2013-09-24 16:12:00,
2013-09-24 10:18:00,65.9,44.5,30.19,SE,143,5.0,16.0,46,0.00,,,0.00,Wunderground v.1.15,2013-09-24 16:18:00,
2013-09-24 10:24:00,66.2,44.8,30.19,SE,133,5.0,16.0,46,0.00,,,0.00,Wunderground v.1.15,2013-09-24 16:24:00,
2013-09-24 10:30:00,66.0,43.5,30.19,SE,138,6.0,6.0,44,0.00,,,0.00,Wunderground v.1.15,2013-09-24 16:30:00,
2013-09-24 10:36:00,66.1,45.3,30.18,ESE,123,6.0,16.0,47,0.00,,,0.00,Wunderground v.1.15,2013-09-24 16:36:00,
2013-09-24 10:42:00,66.3,43.7,30.18,SE,134,7.0,7.0,44,0.00,,,0.00,Wunderground v.1.15,2013-09-24 16:42:00,
2013-09-24 10:48:00,66.5,44.5,30.18,SE,132,6.0,16.0,45,0.00,,,0.00,Wunderground v.1.15,2013-09-24 16:48:00,
2013-09-24 10:54:00,66.7,44.1,30.18,South,181,6.0,8.0,44,0.00,,,0.00,Wunderground v.1.15,2013-09-24 16:54:00,
2013-09-24 11:00:00,66.8,46.5,30.18,SSE,168,7.0,7.0,48,0.00,,,0.00,Wunderground v.1.15,2013-09-24 17:00:00,
2013-09-24 11:06:00,67.0,47.2,30.18,SE,143,6.0,16.0,49,0.00,,,0.00,Wunderground v.1.15,2013-09-24 17:06:00,
2013-09-24 11:12:00,67.1,48.9,30.17,SSE,157,7.0,16.0,52,0.00,,,0.00,Wunderground v.1.15,2013-09-24 17:12:00,
2013-09-24 11:18:00,67.2,49.5,30.17,SSE,158,8.0,16.0,53,0.00,,,0.00,Wunderground v.1.15,2013-09-24 17:18:00,
2013-09-24 11:24:00,67.5,49.8,30.17,SSE,162,9.0,16.0,53,0.00,,,0.00,Wunderground v.1.15,2013-09-24 17:24:00,
2013-09-24 11:30:00,68.4,49.0,30.16,SE,133,7.0,7.0,50,0.00,,,0.00,Wunderground v.1.15,2013-09-24 17:30:00,
2013-09-24 11:36:00,68.8,48.9,30.16,SSE,165,7.0,16.0,49,0.00,,,0.00,Wunderground v.1.15,2013-09-24 17:36:00,
2013-09-24 11:42:00,69.4,49.4,30.16,SE,137,7.0,16.0,49,0.00,,,0.00,Wunderground v.1.15,2013-09-24 17:42:00,
2013-09-24 11:48:00,69.9,49.3,30.15,SSE,156,8.0,16.0,48,0.00,,,0.00,Wunderground v.1.15,2013-09-24 17:48:00,
2013-09-24 11:54:00,70.2,49.6,30.15,SSE,167,8.0,16.0,48,0.00,,,0.00,Wunderground v.1.15,2013-09-24 17:54:00,
2013-09-24 12:00:00,70.9,47.3,30.15,SSE,163,9.0,9.0,43,0.00,,,0.00,Wunderground v.1.15,2013-09-24 18:00:00,
2013-09-24 12:06:00,71.3,46.4,30.14,SSE,152,10.0,16.0,41,0.00,,,0.00,Wunderground v.1.15,2013-09-24 18:06:00,
2013-09-24 12:12:00,71.9,46.3,30.14,South,179,9.0,10.0,40,0.00,,,0.00,Wunderground v.1.15,2013-09-24 18:12:00,
2013-09-24 12:18:00,71.7,45.4,30.14,SSE,166,9.0,16.0,39,0.00,,,0.00,Wunderground v.1.15,2013-09-24 18:18:00,
2013-09-24 12:24:00,72.0,46.3,30.13,South,173,9.0,16.0,40,0.00,,,0.00,Wunderground v.1.15,2013-09-24 18:24:00,
2013-09-24 12:30:00,72.4,43.2,30.13,South,190,9.0,16.0,35,0.00,,,0.00,Wunderground v.1.15,2013-09-24 18:30:00,
2013-09-24 12:36:00,72.7,43.5,30.13,SE,144,9.0,16.0,35,0.00,,,0.00,Wunderground v.1.15,2013-09-24 18:36:00,
2013-09-24 12:42:00,72.5,41.7,30.13,SSE,168,10.0,16.0,33,0.00,,,0.00,Wunderground v.1.15,2013-09-24 18:42:00,
2013-09-24 12:48:00,72.6,41.8,30.12,SSE,168,10.0,16.0,33,0.00,,,0.00,Wunderground v.1.15,2013-09-24 18:48:00,
2013-09-24 12:54:00,72.9,42.9,30.12,South,189,11.0,17.0,34,0.00,,,0.00,Wunderground v.1.15,2013-09-24 18:54:00,
2013-09-24 13:00:00,73.0,39.7,30.11,South,185,10.0,16.0,30,0.00,,,0.00,Wunderground v.1.15,2013-09-24 19:00:00,
2013-09-24 13:06:00,72.8,40.4,30.11,South,178,11.0,16.0,31,0.00,,,0.00,Wunderground v.1.15,2013-09-24 19:06:00,
2013-09-24 13:12:00,72.9,41.3,30.11,South,181,12.0,20.0,32,0.00,,,0.00,Wunderground v.1.15,2013-09-24 19:12:00,
2013-09-24 13:18:00,73.0,42.2,30.10,South,179,13.0,20.0,33,0.00,,,0.00,Wunderground v.1.15,2013-09-24 19:18:00,
2013-09-24 13:24:00,73.0,41.4,30.10,South,187,13.0,16.0,32,0.00,,,0.00,Wunderground v.1.15,2013-09-24 19:24:00,
2013-09-24 13:30:00,73.1,41.5,30.09,South,187,13.0,13.0,32,0.00,,,0.00,Wunderground v.1.15,2013-09-24 19:30:00,
2013-09-24 13:36:00,73.4,40.9,30.09,South,179,12.0,16.0,31,0.00,,,0.00,Wunderground v.1.15,2013-09-24 19:36:00,
2013-09-24 13:42:00,73.0,39.7,30.09,South,183,14.0,18.0,30,0.00,,,0.00,Wunderground v.1.15,2013-09-24 19:42:00,
2013-09-24 13:48:00,73.1,42.3,30.08,South,174,13.0,18.0,33,0.00,,,0.00,Wunderground v.1.15,2013-09-24 19:48:00,
2013-09-24 13:54:00,73.1,42.3,30.08,South,172,12.0,19.0,33,0.00,,,0.00,Wunderground v.1.15,2013-09-24 19:54:00,
2013-09-24 14:00:00,73.3,42.4,30.08,South,172,13.0,16.0,33,0.00,,,0.00,Wunderground v.1.15,2013-09-24 20:00:00,
2013-09-24 14:06:00,73.5,42.6,30.08,SE,137,12.0,16.0,33,0.00,,,0.00,Wunderground v.1.15,2013-09-24 20:06:00,
2013-09-24 14:12:00,73.7,43.6,30.07,SE,144,11.0,16.0,34,0.00,,,0.00,Wunderground v.1.15,2013-09-24 20:12:00,
2013-09-24 14:18:00,73.8,41.3,30.07,South,185,13.0,16.0,31,0.00,,,0.00,Wunderground v.1.15,2013-09-24 20:18:00,
2013-09-24 14:24:00,74.0,42.3,30.07,SSE,154,14.0,16.0,32,0.00,,,0.00,Wunderground v.1.15,2013-09-24 20:24:00,
2013-09-24 14:30:00,74.2,45.5,30.07,South,186,13.0,16.0,36,0.00,,,0.00,Wunderground v.1.15,2013-09-24 20:30:00,
2013-09-24 14:36:00,74.0,42.3,30.07,South,169,12.0,16.0,32,0.00,,,0.00,Wunderground v.1.15,2013-09-24 20:36:00,
2013-09-24 14:42:00,74.1,41.5,30.06,SSE,164,12.0,16.0,31,0.00,,,0.00,Wunderground v.1.15,2013-09-24 20:42:00,
2013-09-24 14:48:00,74.1,40.7,30.06,SSE,164,13.0,19.0,30,0.00,,,0.00,Wunderground v.1.15,2013-09-24 20:48:00,
2013-09-24 14:54:00,74.2,41.6,30.06,SSE,162,13.0,16.0,31,0.00,,,0.00,Wunderground v.1.15,2013-09-24 20:54:00,
2013-09-24 15:00:00,74.8,42.1,30.05,South,181,10.0,16.0,31,0.00,,,0.00,Wunderground v.1.15,2013-09-24 21:00:00,
2013-09-24 15:06:00,75.1,40.7,30.05,SSW,206,11.0,16.0,29,0.00,,,0.00,Wunderground v.1.15,2013-09-24 21:06:00,
2013-09-24 15:12:00,74.7,40.3,30.04,SSE,167,13.0,16.0,29,0.00,,,0.00,Wunderground v.1.15,2013-09-24 21:12:00,
2013-09-24 15:18:00,74.6,40.2,30.04,South,172,13.0,17.0,29,0.00,,,0.00,Wunderground v.1.15,2013-09-24 21:18:00,
2013-09-24 15:24:00,74.6,40.2,30.04,South,170,13.0,16.0,29,0.00,,,0.00,Wunderground v.1.15,2013-09-24 21:24:00,
2013-09-24 15:30:00,74.5,41.9,30.04,SSE,168,12.0,12.0,31,0.00,,,0.00,Wunderground v.1.15,2013-09-24 21:30:00,
2013-09-24 15:36:00,74.9,41.4,30.03,SSE,165,11.0,16.0,30,0.00,,,0.00,Wunderground v.1.15,2013-09-24 21:36:00,
2013-09-24 15:42:00,74.4,41.8,30.03,SSW,206,13.0,13.0,31,0.00,,,0.00,Wunderground v.1.15,2013-09-24 21:42:00,
2013-09-24 15:48:00,74.8,43.8,30.03,SSE,158,12.0,16.0,33,0.00,,,0.00,Wunderground v.1.15,2013-09-24 21:48:00,
2013-09-24 15:54:00,74.7,42.0,30.02,SSE,156,13.0,18.0,31,0.00,,,0.00,Wunderground v.1.15,2013-09-24 21:54:00,
2013-09-24 16:00:00,74.9,41.4,30.02,South,174,13.0,16.0,30,0.00,,,0.00,Wunderground v.1.15,2013-09-24 22:00:00,
2013-09-24 16:06:00,74.5,40.1,30.01,South,177,13.0,18.0,29,0.00,,,0.00,Wunderground v.1.15,2013-09-24 22:06:00,
2013-09-24 16:12:00,74.5,40.1,30.01,SSE,166,13.0,15.0,29,0.00,,,0.00,Wunderground v.1.15,2013-09-24 22:12:00,
2013-09-24 16:18:00,74.7,41.2,30.01,SSE,152,12.0,16.0,30,0.00,,,0.00,Wunderground v.1.15,2013-09-24 22:18:00,
2013-09-24 16:24:00,74.6,40.2,30.01,South,171,12.0,16.0,29,0.00,,,0.00,Wunderground v.1.15,2013-09-24 22:24:00,
2013-09-24 16:32:00,74.4,40.9,30.00,SSE,168,14.0,16.0,30,0.00,,,0.00,Wunderground v.1.15,2013-09-24 22:32:00,
2013-09-24 16:38:00,74.4,40.1,30.00,South,180,13.0,16.0,29,0.00,,,0.00,Wunderground v.1.15,2013-09-24 22:38:00,
2013-09-24 16:44:00,74.5,41.0,30.00,SSE,164,12.0,17.0,30,0.00,,,0.00,Wunderground v.1.15,2013-09-24 22:44:00,
2013-09-24 16:50:00,74.4,40.1,30.00,SSE,164,11.0,11.0,29,0.00,,,0.00,Wunderground v.1.15,2013-09-24 22:50:00,
2013-09-24 16:56:00,74.4,40.1,30.00,SSE,162,11.0,16.0,29,0.00,,,0.00,Wunderground v.1.15,2013-09-24 22:56:00,
2013-09-24 17:02:00,74.2,39.9,30.00,SSE,161,10.0,11.0,29,0.00,,,0.00,Wunderground v.1.15,2013-09-24 23:02:00,
2013-09-24 17:08:00,74.0,40.6,29.99,South,172,11.0,16.0,30,0.00,,,0.00,Wunderground v.1.15,2013-09-24 23:08:00,
2013-09-24 17:14:00,74.0,41.4,29.99,South,171,11.0,17.0,31,0.00,,,0.00,Wunderground v.1.15,2013-09-24 23:14:00,
2013-09-24 17:20:00,73.8,40.4,29.99,SE,143,12.0,12.0,30,0.00,,,0.00,Wunderground v.1.15,2013-09-24 23:20:00,
2013-09-24 17:26:00,73.5,41.0,29.99,SE,134,11.0,16.0,31,0.00,,,0.00,Wunderground v.1.15,2013-09-24 23:26:00,
2013-09-24 17:32:00,73.4,41.7,29.98,SSE,154,10.0,16.0,32,0.00,,,0.00,Wunderground v.1.15,2013-09-24 23:32:00,
2013-09-24 17:38:00,73.2,41.6,29.98,SE,145,9.0,16.0,32,0.00,,,0.00,Wunderground v.1.15,2013-09-24 23:38:00,
2013-09-24 17:44:00,72.9,41.3,29.98,SSE,168,9.0,16.0,32,0.00,,,0.00,Wunderground v.1.15,2013-09-24 23:44:00,
2013-09-24 17:50:00,72.5,41.7,29.98,SSE,162,8.0,8.0,33,0.00,,,0.00,Wunderground v.1.15,2013-09-24 23:50:00,
2013-09-24 17:56:00,72.2,42.3,29.97,South,172,8.0,16.0,34,0.00,,,0.00,Wunderground v.1.15,2013-09-24 23:56:00,
2013-09-24 18:02:00,71.9,42.0,29.97,SSE,150,10.0,16.0,34,0.00,,,0.00,Wunderground v.1.15,2013-09-25 00:02:00,
2013-09-24 18:08:00,71.3,43.0,29.97,SE,143,10.0,16.0,36,0.00,,,0.00,Wunderground v.1.15,2013-09-25 00:08:00,
2013-09-24 18:14:00,70.8,43.2,29.97,SE,135,9.0,16.0,37,0.00,,,0.00,Wunderground v.1.15,2013-09-25 00:14:00,
2013-09-24 18:22:00,70.0,43.2,29.97,SSE,162,9.0,16.0,38,0.00,,,0.00,Wunderground v.1.15,2013-09-25 00:22:00,
2013-09-24 18:28:00,69.4,43.4,29.97,SE,143,9.0,16.0,39,0.00,,,0.00,Wunderground v.1.15,2013-09-25 00:28:00,
2013-09-24 18:34:00,69.0,43.0,29.96,SE,131,9.0,16.0,39,0.00,,,0.00,Wunderground v.1.15,2013-09-25 00:34:00,
2013-09-24 18:40:00,68.5,43.2,29.96,SE,135,10.0,10.0,40,0.00,,,0.00,Wunderground v.1.15,2013-09-25 00:40:00,
2013-09-24 18:46:00,67.9,43.3,29.96,SSE,153,9.0,16.0,41,0.00,,,0.00,Wunderground v.1.15,2013-09-25 00:46:00,
2013-09-24 18:52:00,67.3,44.0,29.96,SE,129,8.0,16.0,43,0.00,,,0.00,Wunderground v.1.15,2013-09-25 00:52:00,
2013-09-24 18:58:00,66.7,44.1,29.96,SE,133,8.0,16.0,44,0.00,,,0.00,Wunderground v.1.15,2013-09-25 00:58:00,
2013-09-24 19:04:00,66.0,44.0,29.96,SE,139,7.0,16.0,45,0.00,,,0.00,Wunderground v.1.15,2013-09-25 01:04:00,
2013-09-24 19:10:00,65.2,43.9,29.96,SE,132,5.0,5.0,46,0.00,,,0.00,Wunderground v.1.15,2013-09-25 01:10:00,
2013-09-24 19:16:00,64.4,44.3,29.96,SE,133,4.0,16.0,48,0.00,,,0.00,Wunderground v.1.15,2013-09-25 01:16:00,
2013-09-24 19:22:00,64.0,44.4,29.95,SE,145,5.0,16.0,49,0.00,,,0.00,Wunderground v.1.15,2013-09-25 01:22:00,
2013-09-24 19:28:00,63.5,44.5,29.95,SE,140,4.0,16.0,50,0.00,,,0.00,Wunderground v.1.15,2013-09-25 01:28:00,
2013-09-24 19:34:00,63.0,44.6,29.95,SSE,154,5.0,16.0,51,0.00,,,0.00,Wunderground v.1.15,2013-09-25 01:34:00,
2013-09-24 19:40:00,62.6,44.7,29.95,SSE,153,6.0,6.0,52,0.00,,,0.00,Wunderground v.1.15,2013-09-25 01:40:00,
2013-09-24 19:46:00,62.4,44.5,29.95,SE,137,5.0,16.0,52,0.00,,,0.00,Wunderground v.1.15,2013-09-25 01:46:00,
2013-09-24 19:52:00,62.3,44.4,29.95,SSE,162,6.0,16.0,52,0.00,,,0.00,Wunderground v.1.15,2013-09-25 01:52:00,
2013-09-24 19:58:00,62.1,44.8,29.95,SE,143,6.0,16.0,53,0.00,,,0.00,Wunderground v.1.15,2013-09-25 01:58:00,
2013-09-24 20:04:00,62.2,44.9,29.94,SE,134,6.0,16.0,53,0.00,,,0.00,Wunderground v.1.15,2013-09-25 02:04:00,
2013-09-24 20:10:00,62.7,44.3,29.94,SSE,160,8.0,16.0,51,0.00,,,0.00,Wunderground v.1.15,2013-09-25 02:10:00,
2013-09-24 20:16:00,62.9,44.5,29.94,SSE,153,9.0,16.0,51,0.00,,,0.00,Wunderground v.1.15,2013-09-25 02:16:00,
2013-09-24 20:22:00,62.9,44.5,29.95,South,179,9.0,16.0,51,0.00,,,0.00,Wunderground v.1.15,2013-09-25 02:22:00,
2013-09-24 20:28:00,62.2,44.3,29.95,South,189,8.0,16.0,52,0.00,,,0.00,Wunderground v.1.15,2013-09-25 02:28:00,
2013-09-24 20:34:00,61.6,44.8,29.95,SSE,154,9.0,16.0,54,0.00,,,0.00,Wunderground v.1.15,2013-09-25 02:34:00,
2013-09-24 20:40:00,61.2,44.9,29.95,South,183,9.0,9.0,55,0.00,,,0.00,Wunderground v.1.15,2013-09-25 02:40:00,
2013-09-24 20:46:00,60.9,44.6,29.95,South,173,9.0,16.0,55,0.00,,,0.00,Wunderground v.1.15,2013-09-25 02:46:00,
2013-09-24 20:52:00,60.8,44.5,29.95,South,170,9.0,16.0,55,0.00,,,0.00,Wunderground v.1.15,2013-09-25 02:52:00,
2013-09-24 20:58:00,61.0,44.7,29.95,South,181,10.0,16.0,55,0.00,,,0.00,Wunderground v.1.15,2013-09-25 02:58:00,
2013-09-24 21:04:00,60.5,44.7,29.95,South,172,9.0,16.0,56,0.00,,,0.00,Wunderground v.1.15,2013-09-25 03:04:00,
2013-09-24 21:10:00,59.8,45.0,29.95,South,174,8.0,8.0,58,0.00,,,0.00,Wunderground v.1.15,2013-09-25 03:10:00,
2013-09-24 21:16:00,59.4,45.1,29.94,South,171,8.0,16.0,59,0.00,,,0.00,Wunderground v.1.15,2013-09-25 03:16:00,
2013-09-24 21:22:00,59.3,45.0,29.95,South,169,9.0,16.0,59,0.00,,,0.00,Wunderground v.1.15,2013-09-25 03:22:00,
2013-09-24 21:28:00,59.0,45.6,29.95,SSW,192,9.0,16.0,61,0.00,,,0.00,Wunderground v.1.15,2013-09-25 03:28:00,
2013-09-24 21:34:00,58.6,45.2,29.94,South,181,11.0,16.0,61,0.00,,,0.00,Wunderground v.1.15,2013-09-25 03:34:00,
2013-09-24 21:40:00,58.7,44.8,29.94,South,190,12.0,16.0,60,0.00,,,0.00,Wunderground v.1.15,2013-09-25 03:40:00,
2013-09-24 21:46:00,58.9,44.6,29.94,South,179,12.0,16.0,59,0.00,,,0.00,Wunderground v.1.15,2013-09-25 03:46:00,
2013-09-24 21:52:00,58.5,44.2,29.94,SSE,167,9.0,16.0,59,0.00,,,0.00,Wunderground v.1.15,2013-09-25 03:52:00,
2013-09-24 21:58:00,58.5,44.2,29.94,South,172,7.0,16.0,59,0.00,,,0.00,Wunderground v.1.15,2013-09-25 03:58:00,
2013-09-24 22:02:00,58.2,43.9,29.94,South,177,7.0,9.0,59,0.00,,,0.00,Wunderground v.1.15,2013-09-25 04:02:00,
2013-09-24 22:06:00,58.2,43.9,29.93,South,178,8.0,16.0,59,0.00,,,0.00,Wunderground v.1.15,2013-09-25 04:06:00,
2013-09-24 22:10:00,58.6,43.9,29.93,SSE,166,9.0,16.0,58,0.00,,,0.00,Wunderground v.1.15,2013-09-25 04:10:00,
2013-09-24 22:16:00,59.3,44.1,29.93,SSW,193,11.0,16.0,57,0.00,,,0.00,Wunderground v.1.15,2013-09-25 04:16:00,
2013-09-24 22:22:00,59.3,44.1,29.92,South,181,12.0,16.0,57,0.00,,,0.00,Wunderground v.1.15,2013-09-25 04:22:00,
2013-09-24 22:28:00,59.4,44.2,29.92,SSE,164,12.0,16.0,57,0.00,,,0.00,Wunderground v.1.15,2013-09-25 04:28:00,
2013-09-24 22:34:00,59.5,44.2,29.92,South,173,12.0,16.0,57,0.00,,,0.00,Wunderground v.1.15,2013-09-25 04:34:00,
2013-09-24 22:40:00,59.5,44.2,29.92,South,170,12.0,16.0,57,0.00,,,0.00,Wunderground v.1.15,2013-09-25 04:40:00,
2013-09-24 22:44:00,59.4,44.2,29.92,South,186,12.0,16.0,57,0.00,,,0.00,Wunderground v.1.15,2013-09-25 04:44:00,
2013-09-24 22:50:00,59.5,43.8,29.92,South,181,13.0,13.0,56,0.00,,,0.00,Wunderground v.1.15,2013-09-25 04:50:00,
2013-09-24 22:56:00,59.4,44.2,29.92,South,180,14.0,20.0,57,0.00,,,0.00,Wunderground v.1.15,2013-09-25 04:56:00,
2013-09-24 23:02:00,59.4,44.2,29.92,SSE,168,13.0,16.0,57,0.00,,,0.00,Wunderground v.1.15,2013-09-25 05:02:00,
2013-09-24 23:08:00,58.7,44.4,29.92,South,172,11.0,16.0,59,0.00,,,0.00,Wunderground v.1.15,2013-09-25 05:08:00,
2013-09-24 23:14:00,58.2,43.9,29.92,South,188,9.0,16.0,59,0.00,,,0.00,Wunderground v.1.15,2013-09-25 05:14:00,
2013-09-24 23:20:00,58.9,43.7,29.92,South,187,10.0,16.0,57,0.00,,,0.00,Wunderground v.1.15,2013-09-25 05:20:00,
2013-09-24 23:26:00,59.3,44.1,29.91,South,172,11.0,16.0,57,0.00,,,0.00,Wunderground v.1.15,2013-09-25 05:26:00,
2013-09-24 23:32:00,58.8,43.6,29.91,SSE,168,11.0,13.0,57,0.00,,,0.00,Wunderground v.1.15,2013-09-25 05:32:00,
2013-09-24 23:38:00,58.7,43.5,29.91,South,177,12.0,16.0,57,0.00,,,0.00,Wunderground v.1.15,2013-09-25 05:38:00,
2013-09-24 23:44:00,58.7,43.5,29.91,South,177,14.0,16.0,57,0.00,,,0.00,Wunderground v.1.15,2013-09-25 05:44:00,
2013-09-24 23:50:00,58.2,43.5,29.91,South,177,14.0,16.0,58,0.00,,,0.00,Wunderground v.1.15,2013-09-25 05:50:00,
2013-09-24 23:56:00,57.8,43.6,29.91,South,179,12.0,16.0,59,0.00,,,0.00,Wunderground v.1.15,2013-09-25 05:56:00,